Lexington Weather

Lexington, Massachusetts, USA

68°F
9/23/2021 5:13am 
  • Lexington Conditions: Mostly cloudy
  • Temperature: 67.6°F / 19.8°CWarmer 0.9°F than last hour.
  • Dew Point: 66.7°FIncreased 1.2°Fsince last hour.
  • Relative Humidity: 97%Increased 1.0% since last hour.
  • Wind: Calm, 10-min avg: Calm, gust: None
  • Barometer: 30.03 in Steady
  • Visibility: 10 miles
  • Rain Today: 0.00 in
  •   

Regional Weather Roundup
for Boston / Norton, MA

        
000
ASUS41 KBOX 170804
RWRBOX

REGIONAL WEATHER ROUNDUP
NATIONAL WEATHER SERVICE BOSTON/NORTON MA
400 AM EDT FRI SEP 17 2021

NOTE:  "FAIR" INDICATES FEW OR NO CLOUDS BELOW 12,000 FEET WITH NO 
SIGNIFICANT WEATHER AND/OR OBSTRUCTIONS TO VISIBILITY.

MAZALL-170900-
EASTERN MASSACHUSETTS
  
CITY           SKY/WX    TMP DP  RH WIND       PRES   REMARKS
BOSTON         CLOUDY    66  62  87 NE8       30.31S                  
BEVERLY        CLOUDY    64  62  93 NE5       30.32R                  
LAWRENCE       CLOUDY    62  60  93 NE6       30.34R                  
BEDFORD        CLOUDY    63  62  97 CALM      30.31R                  
BLUE HILL      NOT AVBL                                               
NORWOOD        CLOUDY    65  62  90 NE3       30.30S                  
MARSHFIELD     CLOUDY    66  64  94 NE6       30.30S                  
PLYMOUTH       CLOUDY    66  64  93 NE6       30.29F                  
TAUNTON        CLOUDY    66  63  90 E3        30.29S                  
NEW BEDFORD    CLOUDY    66  65  96 NE7       30.27F                  
$$

MAZALL-170900-
CAPE COD AND THE ISLANDS
  
CITY           SKY/WX    TMP DP  RH WIND       PRES   REMARKS
FALMOUTH       CLOUDY    66  66 100 NE7       30.28F FOG              
HYANNIS        CLOUDY    67  67 100 NE3       30.26F                  
CHATHAM        CLOUDY    67  66  97 NE6       30.29S                  
PROVINCETOWN   CLOUDY    66  65  96 E7        30.30F                  
NANTUCKET      MOCLDY    69  67  93 E9        30.25F                  
MARTHAS VNYRD  CLOUDY    69  69 100 NE7       30.26F                  
$$
 
MAZALL-170900-
CENTRAL AND WESTERN MASSACHUSETTS
  
CITY           SKY/WX    TMP DP  RH WIND       PRES   REMARKS
WORCESTER      CLOUDY    60  58  92 E6        30.33R                  
FITCHBURG      CLOUDY    61  58  90 CALM      30.33R                  
ORANGE         MOCLDY    61  58  90 NE5       30.32R                  
SPRINGFIELD    CLOUDY    65  61  88 NE5       30.29R                  
WESTFIELD      CLOUDY    65  64  97 N5        30.29S                  
NORTH ADAMS    CLOUDY    66  61  84 E6        30.28S                  
PITTSFIELD     CLOUDY    64  61  90 NE5       30.28S                  
$$
 
RIZALL-170900-
RHODE ISLAND
  
CITY           SKY/WX    TMP DP  RH WIND       PRES   REMARKS
PROVIDENCE     CLOUDY    66  64  93 NE9       30.29S                  
NEWPORT        CLOUDY    66  64  93 NE7       30.27F                  
BLOCK ISLAND   CLOUDY    66  65  96 NE10G17   30.26S FOG              
SMITHFIELD     CLOUDY    63  62  97 E5        30.31R                  
WESTERLY       CLOUDY    64  64 100 NE7       30.26S                  
$$
 
CTZALL-170900-
CONNECTICUT
  
CITY           SKY/WX    TMP DP  RH WIND       PRES   REMARKS
BRADLEY INTL   CLOUDY    65  61  87 N5        30.29S                  
HARTFORD       CLOUDY    67  61  81 N7        30.27F                  
BRIDGEPORT     CLOUDY    68  65  90 NE8       30.24F                  
DANBURY        CLOUDY    68  64  87 E10       30.27R                  
GROTON         CLOUDY    67  63  87 NE12      30.25S                  
NEW HAVEN      CLOUDY    69  66  90 NE7       30.25S FOG              
CHESTER        CLOUDY    66  64  94 VRB7      30.27S                  
MERIDEN        CLOUDY    66  61  84 NE6       30.26F                  
WILLIMANTIC    CLOUDY    64  61  90 NE5       30.28S                  
OXFORD         CLOUDY    64  63  96 NE13      30.27F                  
$$

MEZ002-015-021-024-NHZ003-005-008-011-012-014-VTZ005-008-170900-
NORTHERN NEW ENGLAND
  
CITY           SKY/WX    TMP DP  RH WIND       PRES   REMARKS
PORTLAND ME    CLEAR     53  53 100 N5        30.34S                  
BANGOR ME      PTCLDY    50  50 100 CALM      30.37R                  
CONCORD NH     CLEAR     55  54  96 CALM      30.33S                  
MANCHESTER NH  MOCLDY    60  57  89 CALM      30.31R                  
NASHUA NH      MOCLDY    59  59 100 CALM      30.34R                  
PORTSMOUTH NH  MOCLDY    58  56  90 CALM      30.35R                  
JAFFREY NH     CLOUDY    57  57 100 N5        30.34R FOG              
KEENE NH       PTCLDY    57  56  96 CALM      30.32S                  
BURLINGTON VT  CLEAR     62  58  86 NW3       30.26F                  
MT. WASHINGTON PTCLDY    47  46  96 W23         N/A                   
$$

NYZ052-076-170900-
EASTERN NEW YORK
  
CITY           SKY/WX    TMP DP  RH WIND       PRES   REMARKS
ALBANY         CLOUDY    63  63 100 CALM      30.26S                  
NEW YORK CITY  CLOUDY    72  66  81 NE14      30.21S                  
$$
 
ANZALL-170900-
MARINE OBSERVATIONS
  
STATION/POSITION TIME  TEMP    WIND        PRES    VSBY  WAVE
                       AIR SEA DIR/SP/G                  HT/PER
                 (UTC) (F)     (DEG/KT/KT) (MB)    (MI)  (FT/S)
BOSTON BUOY      0740      67   90/ 10/ 14 1026.6F
BUZZARDS BAY     0700           60/ 16/ 18 1026.0S
NANTUCKET SOUND  0740   69 72   80/ 10/ 12 1024.9F
MASS BAY-STELLWA 0704   65     100/ 10/ 12 1026.3R  1 7/8  2/ 4
ISLE OF SHOALS   0700   62      20/ 11/ 12 1025.9F
S OF BLOCK IS    0726      69                N/A           4/ 6
$$

......................KEY.........................
  SKY/WX - SKY CONDITION/PRESENT WEATHER
  TMP    - TEMPERATURE IN FAHRENHEIT
  DWPT   - DEWPOINT IN FAHRENHEIT
  RH     - RELATIVE HUMIDITY IN PERCENT
  WIND   - DIRECTION AND SPEED IN MPH
  PRES   - MEAN SEA LEVEL PRESSURE IN INCHES OF HG
  WCI    - WIND CHILL INDEX
  VSB    - VISIBILITY IN MILES
  HX     - HEAT INDEX
  TC     - TEMPERATURE IN CELSIUS
  VRB    - VARIABLE WIND DIRECTION
  N/A    - NOT AVAILABLE
  
      

Other recent Regional Weather Roundups

Thu Sep 23, 5:04am

Thu Sep 23, 4:04am

Thu Sep 23, 3:04am

Thu Sep 23, 2:04am

Thu Sep 23, 1:04am

Thu Sep 23, 12:04am

Wed Sep 22, 11:04pm

Wed Sep 22, 10:04pm

Wed Sep 22, 9:04pm

Wed Sep 22, 8:04pm

Wed Sep 22, 7:04pm

Wed Sep 22, 6:04pm

Wed Sep 22, 5:04pm

Wed Sep 22, 4:04pm

Wed Sep 22, 3:04pm

Wed Sep 22, 2:04pm

Wed Sep 22, 1:04pm

Wed Sep 22, 12:05pm

Wed Sep 22, 11:04am

Wed Sep 22, 10:04am

Wed Sep 22, 9:04am

Wed Sep 22, 8:04am

Wed Sep 22, 7:04am

Wed Sep 22, 6:04am

Wed Sep 22, 5:04am

Wed Sep 22, 4:04am

Wed Sep 22, 3:04am

Wed Sep 22, 2:04am

Wed Sep 22, 1:04am

Wed Sep 22, 12:04am

Tue Sep 21, 11:04pm

Tue Sep 21, 10:04pm

Tue Sep 21, 9:04pm

Tue Sep 21, 8:04pm

Tue Sep 21, 7:04pm

Tue Sep 21, 6:04pm

Tue Sep 21, 5:04pm

Tue Sep 21, 4:04pm

Tue Sep 21, 3:04pm

Tue Sep 21, 2:04pm

Tue Sep 21, 1:04pm

Tue Sep 21, 12:04pm

Tue Sep 21, 11:04am

Tue Sep 21, 10:04am

Tue Sep 21, 9:04am

Tue Sep 21, 8:04am

Tue Sep 21, 7:04am

Tue Sep 21, 6:04am

Tue Sep 21, 5:04am

Tue Sep 21, 4:04am

Tue Sep 21, 3:04am

Tue Sep 21, 2:04am

Tue Sep 21, 1:04am

Tue Sep 21, 12:04am

Mon Sep 20, 11:04pm

Mon Sep 20, 10:04pm

Mon Sep 20, 9:04pm

Mon Sep 20, 8:04pm

Mon Sep 20, 7:04pm

Mon Sep 20, 6:04pm

Mon Sep 20, 5:04pm

Mon Sep 20, 4:04pm

Mon Sep 20, 3:04pm

Mon Sep 20, 2:04pm

Mon Sep 20, 1:04pm

Mon Sep 20, 12:04pm

Mon Sep 20, 11:04am

Mon Sep 20, 10:04am

Mon Sep 20, 9:04am

Mon Sep 20, 7:04am

Mon Sep 20, 6:04am

Mon Sep 20, 5:04am

Mon Sep 20, 4:04am

Mon Sep 20, 3:04am

Mon Sep 20, 2:04am

Mon Sep 20, 1:04am

Mon Sep 20, 12:04am

Sun Sep 19, 11:04pm

Sun Sep 19, 10:04pm

Sun Sep 19, 9:04pm

Sun Sep 19, 8:04pm

Sun Sep 19, 7:04pm

Sun Sep 19, 6:04pm

Sun Sep 19, 5:04pm

Sun Sep 19, 4:04pm

Sun Sep 19, 3:04pm

Sun Sep 19, 2:05pm

Sun Sep 19, 1:04pm

Sun Sep 19, 12:04pm

Sun Sep 19, 11:04am

Sun Sep 19, 10:05am

Sun Sep 19, 9:04am

Sun Sep 19, 8:04am

Sun Sep 19, 7:04am

Sun Sep 19, 6:04am

Sun Sep 19, 5:04am

Sun Sep 19, 4:04am

Sun Sep 19, 3:04am

Sun Sep 19, 2:04am

Sun Sep 19, 1:04am

Sun Sep 19, 12:04am

Sat Sep 18, 11:05pm

Sat Sep 18, 10:04pm

Sat Sep 18, 9:04pm

Sat Sep 18, 8:04pm

Sat Sep 18, 7:04pm

Sat Sep 18, 6:04pm

Sat Sep 18, 5:04pm

Sat Sep 18, 4:04pm

Sat Sep 18, 3:04pm

Sat Sep 18, 2:04pm

Sat Sep 18, 1:04pm

Sat Sep 18, 12:04pm

Sat Sep 18, 11:04am

Sat Sep 18, 10:04am

Sat Sep 18, 9:04am

Sat Sep 18, 8:04am

Sat Sep 18, 7:04am

Sat Sep 18, 6:04am

Sat Sep 18, 5:04am

Sat Sep 18, 4:04am

Sat Sep 18, 3:04am

Sat Sep 18, 2:04am

Sat Sep 18, 1:04am

Sat Sep 18, 12:04am

Fri Sep 17, 11:04pm

Fri Sep 17, 10:04pm

Fri Sep 17, 9:04pm

Fri Sep 17, 8:04pm

Fri Sep 17, 7:04pm

Fri Sep 17, 6:04pm

Fri Sep 17, 5:04pm

Fri Sep 17, 4:04pm

Fri Sep 17, 3:04pm

Fri Sep 17, 2:04pm

Fri Sep 17, 1:04pm

Fri Sep 17, 12:05pm

Fri Sep 17, 11:04am

Fri Sep 17, 10:04am

Fri Sep 17, 9:04am

Fri Sep 17, 8:04am

Fri Sep 17, 7:04am

Fri Sep 17, 6:04am

Fri Sep 17, 5:04am

Fri Sep 17, 3:04am

Fri Sep 17, 2:04am

Fri Sep 17, 1:04am

Fri Sep 17, 12:04am

Thu Sep 16, 11:04pm

Thu Sep 16, 10:04pm

Thu Sep 16, 9:04pm

Thu Sep 16, 8:04pm

Thu Sep 16, 7:04pm

Thu Sep 16, 6:04pm

Thu Sep 16, 5:04pm

Thu Sep 16, 4:04pm

Thu Sep 16, 3:04pm

Thu Sep 16, 2:04pm

Thu Sep 16, 1:05pm

Thu Sep 16, 12:04pm

Thu Sep 16, 11:05am

Thu Sep 16, 10:05am

Thu Sep 16, 9:04am

Thu Sep 16, 8:04am

Thu Sep 16, 7:04am

Thu Sep 16, 6:04am

Meta data:

ID: 1a5ead59-df15-4585-b6e9-ca573e091ca2
Link: https://api.weather.gov/products/1a5ead59-df15-4585-b6e9-ca573e091ca2